owner,sensor,date,latitude,longitude,vertical_datum,sea_water_practical_salinity,qcFlag 
DISL,ioos:station:DISL:PPTA:1,2013-10-01T00:00:00Z,30.2791,-87.5561,1.33,20.15,1111122 
DISL,ioos:station:DISL:PPTA:1,2013-10-01T00:30:00Z,30.2791,-87.5561,1.332,19.75,1111122 
DISL,ioos:station:DISL:PPTA:1,2013-10-01T01:00:00Z,30.2791,-87.5561,1.333,22.26,1111122 
DISL,ioos:station:DISL:PPTA:1,2013-10-01T01:30:00Z,30.2791,-87.5561,1.351,20.11,1111122 
DISL,ioos:station:DISL:PPTA:1,2013-10-01T02:00:00Z,30.2791,-87.5561,1.348,22.22,1111122 
DISL,ioos:station:DISL:PPTA:1,2013-10-01T02:30:00Z,30.2791,-87.5561,1.352,23.76,1111122 
DISL,ioos:station:DISL:PPTA:1,2013-10-01T03:00:00Z,30.2791,-87.5561,1.357,25.47,1111122 
DISL,ioos:station:DISL:PPTA:1,2013-10-01T03:30:00Z,30.2791,-87.5561,1.362,26.64,1111122 
DISL,ioos:station:DISL:PPTA:1,2013-10-01T04:00:00Z,30.2791,-87.5561,1.359,26.42,1111122 
DISL,ioos:station:DISL:PPTA:1,2013-10-01T04:30:00Z,30.2791,-87.5561,1.374,27.06,1111122 
DISL,ioos:station:DISL:PPTA:1,2013-10-01T05:00:00Z,30.2791,-87.5561,1.376,27.25,1111122 
DISL,ioos:station:DISL:PPTA:1,2013-10-01T05:30:00Z,30.2791,-87.5561,1.387,27.3,1111122 
DISL,ioos:station:DISL:PPTA:1,2013-10-01T06:00:00Z,30.2791,-87.5561,1.397,27.68,1111122 
DISL,ioos:station:DISL:PPTA:1,2013-10-01T06:30:00Z,30.2791,-87.5561,1.398,27.82,1111122 
DISL,ioos:station:DISL:PPTA:1,2013-10-01T07:00:00Z,30.2791,-87.5561,1.411,27.77,1111122 
DISL,ioos:station:DISL:PPTA:1,2013-10-01T07:30:00Z,30.2791,-87.5561,1.426,27.92,1111122 
DISL,ioos:station:DISL:PPTA:1,2013-10-01T08:00:00Z,30.2791,-87.5561,1.423,27.92,1111122 
DISL,ioos:station:DISL:PPTA:1,2013-10-01T08:30:00Z,30.2791,-87.5561,1.429,27.89,1111122 
DISL,ioos:station:DISL:PPTA:1,2013-10-01T09:00:00Z,30.2791,-87.5561,1.447,27.82,1111122 
DISL,ioos:station:DISL:PPTA:1,2013-10-01T09:30:00Z,30.2791,-87.5561,1.461,27.89,1111122 
DISL,ioos:station:DISL:PPTA:1,2013-10-01T10:00:00Z,30.2791,-87.5561,1.487,27.86,1111122 
DISL,ioos:station:DISL:PPTA:1,2013-10-01T10:30:00Z,30.2791,-87.5561,1.493,27.9,1111122 
DISL,ioos:station:DISL:PPTA:1,2013-10-01T11:00:00Z,30.2791,-87.5561,1.498,27.89,1111122 
DISL,ioos:station:DISL:PPTA:1,2013-10-01T11:30:00Z,30.2791,-87.5561,1.494,27.89,1111122 
DISL,ioos:station:DISL:PPTA:1,2013-10-01T12:00:00Z,30.2791,-87.5561,1.491,27.14,1111122 
DISL,ioos:station:DISL:PPTA:1,2013-10-01T12:30:00Z,30.2791,-87.5561,1.508,27.58,1111122 
DISL,ioos:station:DISL:PPTA:1,2013-10-01T13:00:00Z,30.2791,-87.5561,1.494,27.46,1111122 
DISL,ioos:station:DISL:PPTA:1,2013-10-01T13:30:00Z,30.2791,-87.5561,1.496,27.5,1111122 
DISL,ioos:station:DISL:PPTA:1,2013-10-01T14:00:00Z,30.2791,-87.5561,1.512,27.6,1111122 
DISL,ioos:station:DISL:PPTA:1,2013-10-01T14:30:00Z,30.2791,-87.5561,1.486,26.79,1111122 
DISL,ioos:station:DISL:PPTA:1,2013-10-01T15:00:00Z,30.2791,-87.5561,1.489,27.44,1111122 
DISL,ioos:station:DISL:PPTA:1,2013-10-01T15:30:00Z,30.2791,-87.5561,1.474,26.61,1111122 
DISL,ioos:station:DISL:PPTA:1,2013-10-01T16:00:00Z,30.2791,-87.5561,1.464,24.86,1111122 
DISL,ioos:station:DISL:PPTA:1,2013-10-01T16:30:00Z,30.2791,-87.5561,1.478,25.17,1111122 
DISL,ioos:station:DISL:PPTA:1,2013-10-01T17:00:00Z,30.2791,-87.5561,1.452,25.36,1111122 
DISL,ioos:station:DISL:PPTA:1,2013-10-01T17:30:00Z,30.2791,-87.5561,1.455,25.45,1111122 
DISL,ioos:station:DISL:PPTA:1,2013-10-01T18:00:00Z,30.2791,-87.5561,1.44,24.62,1111122 
DISL,ioos:station:DISL:PPTA:1,2013-10-01T18:30:00Z,30.2791,-87.5561,1.428,24.56,1111122 
DISL,ioos:station:DISL:PPTA:1,2013-10-01T19:00:00Z,30.2791,-87.5561,1.434,23.55,1111122 
DISL,ioos:station:DISL:PPTA:1,2013-10-01T19:30:00Z,30.2791,-87.5561,1.418,23.38,1111122 
DISL,ioos:station:DISL:PPTA:1,2013-10-01T20:00:00Z,30.2791,-87.5561,1.403,22.95,1111122 
DISL,ioos:station:DISL:PPTA:1,2013-10-01T20:30:00Z,30.2791,-87.5561,1.408,22.87,1111122 
DISL,ioos:station:DISL:PPTA:1,2013-10-01T21:00:00Z,30.2791,-87.5561,1.405,22.49,1111122 
DISL,ioos:station:DISL:PPTA:1,2013-10-01T21:30:00Z,30.2791,-87.5561,1.41,20.94,1111122 
DISL,ioos:station:DISL:PPTA:1,2013-10-01T22:00:00Z,30.2791,-87.5561,1.402,22.73,1111122 
DISL,ioos:station:DISL:PPTA:1,2013-10-01T22:30:00Z,30.2791,-87.5561,1.41,21.24,1111122 
DISL,ioos:station:DISL:PPTA:1,2013-10-01T23:00:00Z,30.2791,-87.5561,1.408,21.94,1111122 
DISL,ioos:station:DISL:PPTA:1,2013-10-01T23:30:00Z,30.2791,-87.5561,1.418,22.58,1111122 
DISL,ioos:station:DISL:PPTA:1,2013-10-02T00:00:00Z,30.2791,-87.5561,1.395,23.21,1111122 
DISL,ioos:station:DISL:PPTA:1,2013-10-02T00:30:00Z,30.2791,-87.5561,1.392,22.89,1111122 
DISL,ioos:station:DISL:PPTA:1,2013-10-02T01:00:00Z,30.2791,-87.5561,1.389,22.64,1111122 
DISL,ioos:station:DISL:PPTA:1,2013-10-02T01:30:00Z,30.2791,-87.5561,1.4,22.52,1111122 
DISL,ioos:station:DISL:PPTA:1,2013-10-02T02:00:00Z,30.2791,-87.5561,1.404,22.11,1111122 
DISL,ioos:station:DISL:PPTA:1,2013-10-02T02:30:00Z,30.2791,-87.5561,1.41,22.52,1111122 
DISL,ioos:station:DISL:PPTA:1,2013-10-02T03:00:00Z,30.2791,-87.5561,1.405,22.33,1111122 
DISL,ioos:station:DISL:PPTA:1,2013-10-02T03:30:00Z,30.2791,-87.5561,1.415,22.58,1111122 
DISL,ioos:station:DISL:PPTA:1,2013-10-02T04:00:00Z,30.2791,-87.5561,1.407,22.48,1111122 
DISL,ioos:station:DISL:PPTA:1,2013-10-02T04:30:00Z,30.2791,-87.5561,1.401,23.57,1111122 
DISL,ioos:station:DISL:PPTA:1,2013-10-02T05:00:00Z,30.2791,-87.5561,1.389,22.95,1111122 
DISL,ioos:station:DISL:PPTA:1,2013-10-02T05:30:00Z,30.2791,-87.5561,1.405,20.15,1111122 
DISL,ioos:station:DISL:PPTA:1,2013-10-02T06:00:00Z,30.2791,-87.5561,1.413,18.26,1111122 
DISL,ioos:station:DISL:PPTA:1,2013-10-02T06:30:00Z,30.2791,-87.5561,1.398,17.96,1111122 
DISL,ioos:station:DISL:PPTA:1,2013-10-02T07:00:00Z,30.2791,-87.5561,1.407,17.64,1111122 
DISL,ioos:station:DISL:PPTA:1,2013-10-02T07:30:00Z,30.2791,-87.5561,1.405,17.57,1111122 
DISL,ioos:station:DISL:PPTA:1,2013-10-02T08:00:00Z,30.2791,-87.5561,1.402,18.26,1111122 
DISL,ioos:station:DISL:PPTA:1,2013-10-02T08:30:00Z,30.2791,-87.5561,1.425,17.93,1111122 
DISL,ioos:station:DISL:PPTA:1,2013-10-02T09:00:00Z,30.2791,-87.5561,1.412,17.52,1111122 
DISL,ioos:station:DISL:PPTA:1,2013-10-02T09:30:00Z,30.2791,-87.5561,1.409,18.25,1111122 
DISL,ioos:station:DISL:PPTA:1,2013-10-02T10:00:00Z,30.2791,-87.5561,1.425,18.57,1111122 
DISL,ioos:station:DISL:PPTA:1,2013-10-02T10:30:00Z,30.2791,-87.5561,1.428,21.95,1111122 
DISL,ioos:station:DISL:PPTA:1,2013-10-02T11:00:00Z,30.2791,-87.5561,1.462,22.58,1111122 
DISL,ioos:station:DISL:PPTA:1,2013-10-02T11:30:00Z,30.2791,-87.5561,1.442,24.33,1111122 
DISL,ioos:station:DISL:PPTA:1,2013-10-02T12:00:00Z,30.2791,-87.5561,1.455,26.69,1111122 
DISL,ioos:station:DISL:PPTA:1,2013-10-02T12:30:00Z,30.2791,-87.5561,1.455,26.49,1111122 
DISL,ioos:station:DISL:PPTA:1,2013-10-02T13:00:00Z,30.2791,-87.5561,1.453,26.54,1111122 
DISL,ioos:station:DISL:PPTA:1,2013-10-02T13:30:00Z,30.2791,-87.5561,1.46,27.13,1111122 
DISL,ioos:station:DISL:PPTA:1,2013-10-02T14:00:00Z,30.2791,-87.5561,1.471,27.2,1111122 
DISL,ioos:station:DISL:PPTA:1,2013-10-02T14:30:00Z,30.2791,-87.5561,1.477,27.64,1111122 
DISL,ioos:station:DISL:PPTA:1,2013-10-02T15:00:00Z,30.2791,-87.5561,1.469,27.66,1111122 
DISL,ioos:station:DISL:PPTA:1,2013-10-02T15:30:00Z,30.2791,-87.5561,1.454,27.83,1111122 
DISL,ioos:station:DISL:PPTA:1,2013-10-02T16:00:00Z,30.2791,-87.5561,1.454,27.63,1111122 
DISL,ioos:station:DISL:PPTA:1,2013-10-02T16:30:00Z,30.2791,-87.5561,1.452,27.59,1111122 
DISL,ioos:station:DISL:PPTA:1,2013-10-02T17:00:00Z,30.2791,-87.5561,1.448,27.83,1111122 
DISL,ioos:station:DISL:PPTA:1,2013-10-02T17:30:00Z,30.2791,-87.5561,1.416,27.21,1111122 
DISL,ioos:station:DISL:PPTA:1,2013-10-02T18:00:00Z,30.2791,-87.5561,1.443,21.25,1111122 
DISL,ioos:station:DISL:PPTA:1,2013-10-02T18:30:00Z,30.2791,-87.5561,1.443,20.24,1111122 
DISL,ioos:station:DISL:PPTA:1,2013-10-02T19:00:00Z,30.2791,-87.5561,1.443,19.8,1111122 
DISL,ioos:station:DISL:PPTA:1,2013-10-02T19:30:00Z,30.2791,-87.5561,1.441,19.72,1111122 
DISL,ioos:station:DISL:PPTA:1,2013-10-02T20:00:00Z,30.2791,-87.5561,1.45,19.71,1111122 
DISL,ioos:station:DISL:PPTA:1,2013-10-02T20:30:00Z,30.2791,-87.5561,1.435,19.97,1111122 
DISL,ioos:station:DISL:PPTA:1,2013-10-02T21:00:00Z,30.2791,-87.5561,1.463,20.2,1111122 
DISL,ioos:station:DISL:PPTA:1,2013-10-02T21:30:00Z,30.2791,-87.5561,1.484,19.62,1111122 
DISL,ioos:station:DISL:PPTA:1,2013-10-02T22:00:00Z,30.2791,-87.5561,1.451,19.4,1111122 
DISL,ioos:station:DISL:PPTA:1,2013-10-02T22:30:00Z,30.2791,-87.5561,1.456,18.53,1111122 
DISL,ioos:station:DISL:PPTA:1,2013-10-02T23:00:00Z,30.2791,-87.5561,1.491,18.64,1111122 
DISL,ioos:station:DISL:PPTA:1,2013-10-02T23:30:00Z,30.2791,-87.5561,1.484,18.93,1111122 
DISL,ioos:station:DISL:PPTA:1,2013-10-03T00:00:00Z,30.2791,-87.5561,1.494,21.88,1111122 
DISL,ioos:station:DISL:PPTA:1,2013-10-03T00:30:00Z,30.2791,-87.5561,1.492,20.81,1111122 
DISL,ioos:station:DISL:PPTA:1,2013-10-03T01:00:00Z,30.2791,-87.5561,1.471,23.0,1111122 
DISL,ioos:station:DISL:PPTA:1,2013-10-03T01:30:00Z,30.2791,-87.5561,1.481,24.43,1111122 
DISL,ioos:station:DISL:PPTA:1,2013-10-03T02:00:00Z,30.2791,-87.5561,1.501,25.36,1111122 
DISL,ioos:station:DISL:PPTA:1,2013-10-03T02:30:00Z,30.2791,-87.5561,1.511,25.64,1111122 
DISL,ioos:station:DISL:PPTA:1,2013-10-03T03:00:00Z,30.2791,-87.5561,1.492,25.97,1111122 
DISL,ioos:station:DISL:PPTA:1,2013-10-03T03:30:00Z,30.2791,-87.5561,1.508,26.32,1111122 
DISL,ioos:station:DISL:PPTA:1,2013-10-03T04:00:00Z,30.2791,-87.5561,1.497,26.64,1111122 
DISL,ioos:station:DISL:PPTA:1,2013-10-03T04:30:00Z,30.2791,-87.5561,1.494,26.51,1111122 
DISL,ioos:station:DISL:PPTA:1,2013-10-03T05:00:00Z,30.2791,-87.5561,1.496,26.57,1111122 
DISL,ioos:station:DISL:PPTA:1,2013-10-03T05:30:00Z,30.2791,-87.5561,1.501,26.56,1111122 
DISL,ioos:station:DISL:PPTA:1,2013-10-03T06:00:00Z,30.2791,-87.5561,1.49,26.51,1111122 
DISL,ioos:station:DISL:PPTA:1,2013-10-03T06:30:00Z,30.2791,-87.5561,1.495,22.21,1111122 
DISL,ioos:station:DISL:PPTA:1,2013-10-03T07:00:00Z,30.2791,-87.5561,1.489,21.56,1111122 
DISL,ioos:station:DISL:PPTA:1,2013-10-03T07:30:00Z,30.2791,-87.5561,1.471,21.01,1111122 
DISL,ioos:station:DISL:PPTA:1,2013-10-03T08:00:00Z,30.2791,-87.5561,1.477,21.18,1111122 
DISL,ioos:station:DISL:PPTA:1,2013-10-03T08:30:00Z,30.2791,-87.5561,1.474,20.74,1111122 
DISL,ioos:station:DISL:PPTA:1,2013-10-03T09:00:00Z,30.2791,-87.5561,1.468,20.41,1111122 
DISL,ioos:station:DISL:PPTA:1,2013-10-03T09:30:00Z,30.2791,-87.5561,1.483,19.98,1111122 
DISL,ioos:station:DISL:PPTA:1,2013-10-03T10:00:00Z,30.2791,-87.5561,1.488,21.88,1111122 
DISL,ioos:station:DISL:PPTA:1,2013-10-03T10:30:00Z,30.2791,-87.5561,1.507,21.4,1111122 
DISL,ioos:station:DISL:PPTA:1,2013-10-03T11:00:00Z,30.2791,-87.5561,1.504,19.09,1111122 
DISL,ioos:station:DISL:PPTA:1,2013-10-03T11:30:00Z,30.2791,-87.5561,1.505,20.15,1111122 
DISL,ioos:station:DISL:PPTA:1,2013-10-03T12:00:00Z,30.2791,-87.5561,1.507,20.04,1111122 
DISL,ioos:station:DISL:PPTA:1,2013-10-03T12:30:00Z,30.2791,-87.5561,1.499,19.9,1111122 
DISL,ioos:station:DISL:PPTA:1,2013-10-03T13:00:00Z,30.2791,-87.5561,1.503,22.48,1111122 
DISL,ioos:station:DISL:PPTA:1,2013-10-03T13:30:00Z,30.2791,-87.5561,1.52,23.63,1111122 
DISL,ioos:station:DISL:PPTA:1,2013-10-03T14:00:00Z,30.2791,-87.5561,1.52,25.92,1111122 
DISL,ioos:station:DISL:PPTA:1,2013-10-03T14:30:00Z,30.2791,-87.5561,1.522,25.68,1111122 
DISL,ioos:station:DISL:PPTA:1,2013-10-03T15:00:00Z,30.2791,-87.5561,1.521,27.19,1111122 
DISL,ioos:station:DISL:PPTA:1,2013-10-03T15:30:00Z,30.2791,-87.5561,1.53,27.77,1111122 
DISL,ioos:station:DISL:PPTA:1,2013-10-03T16:00:00Z,30.2791,-87.5561,1.519,27.98,1111122 
DISL,ioos:station:DISL:PPTA:1,2013-10-03T16:30:00Z,30.2791,-87.5561,1.539,28.02,1111122 
DISL,ioos:station:DISL:PPTA:1,2013-10-03T17:00:00Z,30.2791,-87.5561,1.519,28.43,1111122 
DISL,ioos:station:DISL:PPTA:1,2013-10-03T17:30:00Z,30.2791,-87.5561,1.523,28.11,1111122 
DISL,ioos:station:DISL:PPTA:1,2013-10-03T18:00:00Z,30.2791,-87.5561,1.519,24.94,1111122 
DISL,ioos:station:DISL:PPTA:1,2013-10-03T18:30:00Z,30.2791,-87.5561,1.512,22.65,1111122 
DISL,ioos:station:DISL:PPTA:1,2013-10-03T19:00:00Z,30.2791,-87.5561,1.509,20.95,1111122 
DISL,ioos:station:DISL:PPTA:1,2013-10-03T19:30:00Z,30.2791,-87.5561,1.542,20.4,1111122 
DISL,ioos:station:DISL:PPTA:1,2013-10-03T20:00:00Z,30.2791,-87.5561,1.526,20.74,1111122 
DISL,ioos:station:DISL:PPTA:1,2013-10-03T20:30:00Z,30.2791,-87.5561,1.529,21.6,1111122 
DISL,ioos:station:DISL:PPTA:1,2013-10-03T21:00:00Z,30.2791,-87.5561,1.523,20.48,1111122 
DISL,ioos:station:DISL:PPTA:1,2013-10-03T21:30:00Z,30.2791,-87.5561,1.524,21.08,1111122 
DISL,ioos:station:DISL:PPTA:1,2013-10-03T22:00:00Z,30.2791,-87.5561,1.551,20.35,1111122 
DISL,ioos:station:DISL:PPTA:1,2013-10-03T22:30:00Z,30.2791,-87.5561,1.522,20.52,1111122 
DISL,ioos:station:DISL:PPTA:1,2013-10-03T23:00:00Z,30.2791,-87.5561,1.543,20.83,1111122 
DISL,ioos:station:DISL:PPTA:1,2013-10-03T23:30:00Z,30.2791,-87.5561,1.561,20.39,1111122 
DISL,ioos:station:DISL:PPTA:1,2013-10-04T00:00:00Z,30.2791,-87.5561,1.54,22.0,1111122 
DISL,ioos:station:DISL:PPTA:1,2013-10-04T00:30:00Z,30.2791,-87.5561,1.547,25.47,1111122 
DISL,ioos:station:DISL:PPTA:1,2013-10-04T01:00:00Z,30.2791,-87.5561,1.551,23.79,1111122 
DISL,ioos:station:DISL:PPTA:1,2013-10-04T01:30:00Z,30.2791,-87.5561,1.565,27.06,1111122 
DISL,ioos:station:DISL:PPTA:1,2013-10-04T02:00:00Z,30.2791,-87.5561,1.521,27.01,1111122 
DISL,ioos:station:DISL:PPTA:1,2013-10-04T02:30:00Z,30.2791,-87.5561,1.566,27.53,1111122 
DISL,ioos:station:DISL:PPTA:1,2013-10-04T03:00:00Z,30.2791,-87.5561,1.575,28.16,1111122 
DISL,ioos:station:DISL:PPTA:1,2013-10-04T03:30:00Z,30.2791,-87.5561,1.524,28.11,1111122 
DISL,ioos:station:DISL:PPTA:1,2013-10-04T04:00:00Z,30.2791,-87.5561,1.499,28.29,1111122 
DISL,ioos:station:DISL:PPTA:1,2013-10-04T04:30:00Z,30.2791,-87.5561,1.54,28.2,1111122 
DISL,ioos:station:DISL:PPTA:1,2013-10-04T05:00:00Z,30.2791,-87.5561,1.487,28.21,1111122 
DISL,ioos:station:DISL:PPTA:1,2013-10-04T05:30:00Z,30.2791,-87.5561,1.505,23.0,1111122 
DISL,ioos:station:DISL:PPTA:1,2013-10-04T06:00:00Z,30.2791,-87.5561,1.518,20.56,1111122 
DISL,ioos:station:DISL:PPTA:1,2013-10-04T06:30:00Z,30.2791,-87.5561,1.488,21.27,1111122 
DISL,ioos:station:DISL:PPTA:1,2013-10-04T07:00:00Z,30.2791,-87.5561,1.512,20.75,1111122 
DISL,ioos:station:DISL:PPTA:1,2013-10-04T07:30:00Z,30.2791,-87.5561,1.467,27.89,1111122 
DISL,ioos:station:DISL:PPTA:1,2013-10-04T08:00:00Z,30.2791,-87.5561,1.484,20.04,1111122 
DISL,ioos:station:DISL:PPTA:1,2013-10-04T08:30:00Z,30.2791,-87.5561,1.448,20.8,1111122 
DISL,ioos:station:DISL:PPTA:1,2013-10-04T09:00:00Z,30.2791,-87.5561,1.479,19.34,1111122 
DISL,ioos:station:DISL:PPTA:1,2013-10-04T09:30:00Z,30.2791,-87.5561,1.44,21.55,1111122 
DISL,ioos:station:DISL:PPTA:1,2013-10-04T10:00:00Z,30.2791,-87.5561,1.456,18.98,1111122 
DISL,ioos:station:DISL:PPTA:1,2013-10-04T10:30:00Z,30.2791,-87.5561,1.456,19.12,1111122 
DISL,ioos:station:DISL:PPTA:1,2013-10-04T11:00:00Z,30.2791,-87.5561,1.453,20.1,1111122 
DISL,ioos:station:DISL:PPTA:1,2013-10-04T11:30:00Z,30.2791,-87.5561,1.468,19.32,1111122 
DISL,ioos:station:DISL:PPTA:1,2013-10-04T12:00:00Z,30.2791,-87.5561,1.469,20.11,1111122 
DISL,ioos:station:DISL:PPTA:1,2013-10-04T12:30:00Z,30.2791,-87.5561,1.458,19.7,1111122 
DISL,ioos:station:DISL:PPTA:1,2013-10-04T13:00:00Z,30.2791,-87.5561,1.472,19.72,1111122 
DISL,ioos:station:DISL:PPTA:1,2013-10-04T13:30:00Z,30.2791,-87.5561,1.481,19.97,1111122 
DISL,ioos:station:DISL:PPTA:1,2013-10-04T14:00:00Z,30.2791,-87.5561,1.472,19.62,1111122 
DISL,ioos:station:DISL:PPTA:1,2013-10-04T14:30:00Z,30.2791,-87.5561,1.478,21.93,1111122 
DISL,ioos:station:DISL:PPTA:1,2013-10-04T15:00:00Z,30.2791,-87.5561,1.478,23.2,1111122 
DISL,ioos:station:DISL:PPTA:1,2013-10-04T15:30:00Z,30.2791,-87.5561,1.494,26.24,1111122 
DISL,ioos:station:DISL:PPTA:1,2013-10-04T16:00:00Z,30.2791,-87.5561,1.518,26.54,1111122 
DISL,ioos:station:DISL:PPTA:1,2013-10-04T16:30:00Z,30.2791,-87.5561,1.499,27.5,1111122 
DISL,ioos:station:DISL:PPTA:1,2013-10-04T17:00:00Z,30.2791,-87.5561,1.511,27.72,1111122 
DISL,ioos:station:DISL:PPTA:1,2013-10-04T17:30:00Z,30.2791,-87.5561,1.502,27.99,1111122 
DISL,ioos:station:DISL:PPTA:1,2013-10-04T18:00:00Z,30.2791,-87.5561,1.502,28.03,1111122 
DISL,ioos:station:DISL:PPTA:1,2013-10-04T18:30:00Z,30.2791,-87.5561,1.476,27.87,1111122 
DISL,ioos:station:DISL:PPTA:1,2013-10-04T19:00:00Z,30.2791,-87.5561,1.507,27.77,1111122 
DISL,ioos:station:DISL:PPTA:1,2013-10-04T19:30:00Z,30.2791,-87.5561,1.488,28.0,1111122 
DISL,ioos:station:DISL:PPTA:1,2013-10-04T20:00:00Z,30.2791,-87.5561,1.462,27.68,1111122 
DISL,ioos:station:DISL:PPTA:1,2013-10-04T20:30:00Z,30.2791,-87.5561,1.485,27.61,1111122 
DISL,ioos:station:DISL:PPTA:1,2013-10-04T21:00:00Z,30.2791,-87.5561,1.5,27.63,1111122 
DISL,ioos:station:DISL:PPTA:1,2013-10-04T21:30:00Z,30.2791,-87.5561,1.487,27.72,1111122 
DISL,ioos:station:DISL:PPTA:1,2013-10-04T22:00:00Z,30.2791,-87.5561,1.508,26.43,1111122 
DISL,ioos:station:DISL:PPTA:1,2013-10-04T22:30:00Z,30.2791,-87.5561,1.516,27.65,1111122 
DISL,ioos:station:DISL:PPTA:1,2013-10-04T23:00:00Z,30.2791,-87.5561,1.524,27.31,1111122 
DISL,ioos:station:DISL:PPTA:1,2013-10-04T23:30:00Z,30.2791,-87.5561,1.545,27.55,1111122 
DISL,ioos:station:DISL:PPTA:1,2013-10-05T00:00:00Z,30.2791,-87.5561,1.53,27.57,1111122 
DISL,ioos:station:DISL:PPTA:1,2013-10-05T00:30:00Z,30.2791,-87.5561,1.544,27.59,1111122 
DISL,ioos:station:DISL:PPTA:1,2013-10-05T01:00:00Z,30.2791,-87.5561,1.553,27.66,1111122 
DISL,ioos:station:DISL:PPTA:1,2013-10-05T01:30:00Z,30.2791,-87.5561,1.537,27.66,1111122 
DISL,ioos:station:DISL:PPTA:1,2013-10-05T02:00:00Z,30.2791,-87.5561,1.538,27.78,1111122 
DISL,ioos:station:DISL:PPTA:1,2013-10-05T02:30:00Z,30.2791,-87.5561,1.572,27.76,1111122 
DISL,ioos:station:DISL:PPTA:1,2013-10-05T03:00:00Z,30.2791,-87.5561,1.571,28.0,1111122 
DISL,ioos:station:DISL:PPTA:1,2013-10-05T03:30:00Z,30.2791,-87.5561,1.562,28.05,1111122 
DISL,ioos:station:DISL:PPTA:1,2013-10-05T04:00:00Z,30.2791,-87.5561,1.563,28.1,1111122 
DISL,ioos:station:DISL:PPTA:1,2013-10-05T04:30:00Z,30.2791,-87.5561,1.56,28.2,1111122 
DISL,ioos:station:DISL:PPTA:1,2013-10-05T05:00:00Z,30.2791,-87.5561,1.537,27.99,1111122 
DISL,ioos:station:DISL:PPTA:1,2013-10-05T05:30:00Z,30.2791,-87.5561,1.524,27.13,1111122 
DISL,ioos:station:DISL:PPTA:1,2013-10-05T06:00:00Z,30.2791,-87.5561,1.55,24.5,1111122 
DISL,ioos:station:DISL:PPTA:1,2013-10-05T06:30:00Z,30.2791,-87.5561,1.527,21.22,1111122 
DISL,ioos:station:DISL:PPTA:1,2013-10-05T07:00:00Z,30.2791,-87.5561,1.51,24.11,1111122 
DISL,ioos:station:DISL:PPTA:1,2013-10-05T07:30:00Z,30.2791,-87.5561,1.495,22.17,1111122 
DISL,ioos:station:DISL:PPTA:1,2013-10-05T08:00:00Z,30.2791,-87.5561,1.49,20.11,1111122 
DISL,ioos:station:DISL:PPTA:1,2013-10-05T08:30:00Z,30.2791,-87.5561,1.47,20.77,1111122 
DISL,ioos:station:DISL:PPTA:1,2013-10-05T09:00:00Z,30.2791,-87.5561,1.464,20.55,1111122 
DISL,ioos:station:DISL:PPTA:1,2013-10-05T09:30:00Z,30.2791,-87.5561,1.45,21.01,1111122 
DISL,ioos:station:DISL:PPTA:1,2013-10-05T10:00:00Z,30.2791,-87.5561,1.436,22.34,1111122 
DISL,ioos:station:DISL:PPTA:1,2013-10-05T10:30:00Z,30.2791,-87.5561,1.437,20.75,1111122 
DISL,ioos:station:DISL:PPTA:1,2013-10-05T11:00:00Z,30.2791,-87.5561,1.432,21.42,1111122 
DISL,ioos:station:DISL:PPTA:1,2013-10-05T11:30:00Z,30.2791,-87.5561,1.422,19.71,1111122 
DISL,ioos:station:DISL:PPTA:1,2013-10-05T12:00:00Z,30.2791,-87.5561,1.436,21.18,1111122 
DISL,ioos:station:DISL:PPTA:1,2013-10-05T12:30:00Z,30.2791,-87.5561,1.435,19.59,1111122 
DISL,ioos:station:DISL:PPTA:1,2013-10-05T13:00:00Z,30.2791,-87.5561,1.442,19.91,1111122 
DISL,ioos:station:DISL:PPTA:1,2013-10-05T13:30:00Z,30.2791,-87.5561,1.444,19.13,1111122 
DISL,ioos:station:DISL:PPTA:1,2013-10-05T14:00:00Z,30.2791,-87.5561,1.428,19.03,1111122 
DISL,ioos:station:DISL:PPTA:1,2013-10-05T14:30:00Z,30.2791,-87.5561,1.425,19.35,1111122 
DISL,ioos:station:DISL:PPTA:1,2013-10-05T15:00:00Z,30.2791,-87.5561,1.447,19.1,1111122 
DISL,ioos:station:DISL:PPTA:1,2013-10-05T15:30:00Z,30.2791,-87.5561,1.45,18.67,1111122 
DISL,ioos:station:DISL:PPTA:1,2013-10-05T16:00:00Z,30.2791,-87.5561,1.45,18.49,1111122 
DISL,ioos:station:DISL:PPTA:1,2013-10-05T16:30:00Z,30.2791,-87.5561,1.444,19.72,1111122 
DISL,ioos:station:DISL:PPTA:1,2013-10-05T17:00:00Z,30.2791,-87.5561,1.446,21.38,1111122 
DISL,ioos:station:DISL:PPTA:1,2013-10-05T17:30:00Z,30.2791,-87.5561,1.451,22.23,1111122 
DISL,ioos:station:DISL:PPTA:1,2013-10-05T18:00:00Z,30.2791,-87.5561,1.434,25.89,1111122 
DISL,ioos:station:DISL:PPTA:1,2013-10-05T18:30:00Z,30.2791,-87.5561,1.442,26.32,1111122 
DISL,ioos:station:DISL:PPTA:1,2013-10-05T19:00:00Z,30.2791,-87.5561,1.43,27.0,1111122 
DISL,ioos:station:DISL:PPTA:1,2013-10-05T19:30:00Z,30.2791,-87.5561,1.439,27.12,1111122 
DISL,ioos:station:DISL:PPTA:1,2013-10-05T20:00:00Z,30.2791,-87.5561,1.45,27.78,1111122 
DISL,ioos:station:DISL:PPTA:1,2013-10-05T20:30:00Z,30.2791,-87.5561,1.452,27.74,1111122 
DISL,ioos:station:DISL:PPTA:1,2013-10-05T21:00:00Z,30.2791,-87.5561,1.471,28.15,1111122 
DISL,ioos:station:DISL:PPTA:1,2013-10-05T21:30:00Z,30.2791,-87.5561,1.479,28.41,1111122 
DISL,ioos:station:DISL:PPTA:1,2013-10-05T22:00:00Z,30.2791,-87.5561,1.479,28.94,1111122 
DISL,ioos:station:DISL:PPTA:1,2013-10-05T22:30:00Z,30.2791,-87.5561,1.493,28.87,1111122 
DISL,ioos:station:DISL:PPTA:1,2013-10-05T23:00:00Z,30.2791,-87.5561,1.512,28.95,1111122 
DISL,ioos:station:DISL:PPTA:1,2013-10-05T23:30:00Z,30.2791,-87.5561,1.514,28.98,1111122 
DISL,ioos:station:DISL:PPTA:1,2013-10-06T00:00:00Z,30.2791,-87.5561,1.533,28.93,1111122 
DISL,ioos:station:DISL:PPTA:1,2013-10-06T00:30:00Z,30.2791,-87.5561,1.572,29.07,1111122 
DISL,ioos:station:DISL:PPTA:1,2013-10-06T01:00:00Z,30.2791,-87.5561,1.581,29.2,1111122 
DISL,ioos:station:DISL:PPTA:1,2013-10-06T01:30:00Z,30.2791,-87.5561,1.592,29.12,1111122 
DISL,ioos:station:DISL:PPTA:1,2013-10-06T02:00:00Z,30.2791,-87.5561,1.588,29.28,1111122 
DISL,ioos:station:DISL:PPTA:1,2013-10-06T02:30:00Z,30.2791,-87.5561,1.591,29.38,1111122 
DISL,ioos:station:DISL:PPTA:1,2013-10-06T03:00:00Z,30.2791,-87.5561,1.588,29.35,1111122 
DISL,ioos:station:DISL:PPTA:1,2013-10-06T03:30:00Z,30.2791,-87.5561,1.6,29.36,1111122 
DISL,ioos:station:DISL:PPTA:1,2013-10-06T04:00:00Z,30.2791,-87.5561,1.592,29.46,1111122 
DISL,ioos:station:DISL:PPTA:1,2013-10-06T04:30:00Z,30.2791,-87.5561,1.606,29.33,1111122 
DISL,ioos:station:DISL:PPTA:1,2013-10-06T05:00:00Z,30.2791,-87.5561,1.596,29.3,1111122 
DISL,ioos:station:DISL:PPTA:1,2013-10-06T05:30:00Z,30.2791,-87.5561,1.61,29.39,1111122 
DISL,ioos:station:DISL:PPTA:1,2013-10-06T06:00:00Z,30.2791,-87.5561,1.581,29.1,1111122 
DISL,ioos:station:DISL:PPTA:1,2013-10-06T06:30:00Z,30.2791,-87.5561,1.58,28.93,1111122 
DISL,ioos:station:DISL:PPTA:1,2013-10-06T07:00:00Z,30.2791,-87.5561,1.567,28.94,1111122 
DISL,ioos:station:DISL:PPTA:1,2013-10-06T07:30:00Z,30.2791,-87.5561,1.564,28.48,1111122 
DISL,ioos:station:DISL:PPTA:1,2013-10-06T08:00:00Z,30.2791,-87.5561,1.549,27.81,1111122 
DISL,ioos:station:DISL:PPTA:1,2013-10-06T08:30:00Z,30.2791,-87.5561,1.548,27.8,1111122 
DISL,ioos:station:DISL:PPTA:1,2013-10-06T09:00:00Z,30.2791,-87.5561,1.528,26.65,1111122 
DISL,ioos:station:DISL:PPTA:1,2013-10-06T09:30:00Z,30.2791,-87.5561,1.521,27.24,1111122 
DISL,ioos:station:DISL:PPTA:1,2013-10-06T10:00:00Z,30.2791,-87.5561,1.514,26.52,1111122 
DISL,ioos:station:DISL:PPTA:1,2013-10-06T10:30:00Z,30.2791,-87.5561,1.501,26.12,1111122 
DISL,ioos:station:DISL:PPTA:1,2013-10-06T11:00:00Z,30.2791,-87.5561,1.494,27.16,1111122 
DISL,ioos:station:DISL:PPTA:1,2013-10-06T11:30:00Z,30.2791,-87.5561,1.496,23.19,1111122 
DISL,ioos:station:DISL:PPTA:1,2013-10-06T12:00:00Z,30.2791,-87.5561,1.489,22.59,1111122 
DISL,ioos:station:DISL:PPTA:1,2013-10-06T12:30:00Z,30.2791,-87.5561,1.533,27.45,1111122 
DISL,ioos:station:DISL:PPTA:1,2013-10-06T13:00:00Z,30.2791,-87.5561,1.45,23.15,1111122 
DISL,ioos:station:DISL:PPTA:1,2013-10-06T13:30:00Z,30.2791,-87.5561,1.455,24.56,1111122 
DISL,ioos:station:DISL:PPTA:1,2013-10-06T14:00:00Z,30.2791,-87.5561,1.494,20.37,1111122 